DW2227 Weather Reports


Display with metric or nautical units.
time (UTC)temp
F
wind
direction
speed
MPH
gust
MPH
rain 1hr
in
rain 24hr
in
rain mn
in
humidity
%
barometer
mb
20260509041827 57 304 0.0 3.0 0.00 0.13 0.11 80 1005.8
20260509041332 57 266 0.0 3.0 0.00 0.13 0.11 80 1005.7
20260509040817 57 213 0.0 3.0 0.00 0.13 0.11 79 1005.6
20260509040318 57 225 1.0 3.0 0.00 0.13 0.11 79 1005.6
20260509035847 57 91 0.0 4.0 0.00 0.13 0.11 79 1005.7
20260509035353 57 184 1.0 4.0 0.00 0.13 0.11 78 1005.7
20260509034817 57 268 0.0 4.0 0.00 0.13 0.11 78 1005.8
20260509034323 57 168 1.0 4.0 0.00 0.13 0.11 78 1005.9
20260509033831 58 58 0.0 2.0 0.00 0.13 0.11 78 1005.7
20260509033337 58 230 0.0 3.0 0.00 0.13 0.11 77 1005.7
20260509032823 58 41 0.0 3.0 0.00 0.13 0.11 77 1005.7
20260509032330 58 186 1.0 3.0 0.00 0.13 0.11 77 1005.7
20260509031835 58 325 0.0 3.0 0.00 0.13 0.11 76 1005.6
20260509031318 58 96 1.0 3.0 0.00 0.13 0.11 76 1005.6
20260509030844 58 117 0.0 4.0 0.00 0.13 0.11 76 1005.7
20260509030325 59 344 1.0 4.0 0.00 0.13 0.11 75 1005.7
20260509025825 59 222 0.0 4.0 0.00 0.13 0.11 74 1005.7
20260509025328 59 24 1.0 6.0 0.00 0.13 0.11 74 1005.7
20260509024832 59 252 0.0 4.0 0.00 0.13 0.11 73 1005.6
20260509024335 59 113 0.0 3.0 0.00 0.13 0.11 73 1005.6
20260509023837 59 92 1.0 4.0 0.00 0.13 0.11 72 1005.6
20260509023342 60 106 1.0 4.0 0.00 0.13 0.11 72 1005.6
20260509022825 60 103 0.0 4.0 0.00 0.13 0.11 71 1005.6
20260509022326 60 132 0.0 4.0 0.00 0.13 0.11 71 1005.5
20260509021832 61 213 1.0 4.0 0.00 0.13 0.11 71 1005.5
20260509021339 61 83 0.0 2.0 0.00 0.13 0.11 69 1005.4
20260509020844 61 105 0.0 3.0 0.00 0.13 0.11 69 1005.4
20260509020330 61 248 0.0 3.0 0.00 0.13 0.11 69 1005.4
20260509015832 62 36 0.0 3.0 0.00 0.13 0.11 68 1005.2
20260509015337 62 46 0.0 3.0 0.00 0.13 0.11 68 1005.2
20260509014823 63 5 0.0 3.0 0.00 0.13 0.11 67 1005.2
20260509014326 63 129 0.0 4.0 0.00 0.13 0.11 66 1005.1
20260509013833 63 185 1.0 4.0 0.00 0.13 0.11 65 1005.1
20260509013317 64 118 0.0 3.0 0.00 0.13 0.11 64 1005.1
20260509012824 64 157 0.0 3.0 0.00 0.13 0.11 62 1005.0
20260509012353 64 61 1.0 3.0 0.00 0.15 0.11 60 1005.0
20260509011836 65 117 1.0 3.0 0.00 0.15 0.11 57 1004.9
20260509011319 65 240 1.0 5.0 0.00 0.15 0.11 52 1004.9
20260509010842 66 151 1.0 5.0 0.00 0.15 0.11 50 1004.8
20260509010324 66 115 0.0 2.0 0.00 0.15 0.11 49 1004.7
20260509005849 66 154 0.0 2.0 0.00 0.15 0.11 47 1004.7
20260509005328 67 169 0.0 2.0 0.00 0.15 0.11 46 1004.7
20260509004830 67 116 1.0 2.0 0.00 0.15 0.11 44 1004.8
20260509004333 67 101 0.0 2.0 0.00 0.15 0.11 44 1004.9
20260509003834 67 121 0.0 2.0 0.00 0.15 0.11 42 1005.0
20260509003337 67 302 0.0 2.0 0.00 0.15 0.11 44 1005.0
20260509002817 68 17 0.0 3.0 0.00 0.15 0.11 43 1005.1
20260509002322 68 97 1.0 3.0 0.00 0.15 0.11 42 1005.1
20260509001827 68 59 0.0 3.0 0.00 0.15 0.11 43 1005.2
20260509001334 68 36 0.0 3.0 0.00 0.15 0.11 43 1005.1
20260509000821 68 281 0.0 3.0 0.00 0.15 0.11 41 1005.2
20260509000327 69 227 0.0 2.0 0.00 0.15 0.11 44 1005.3
20260508235834 69 227 0.0 3.0 0.00 0.15 0.11 41 1005.3
20260508235320 69 333 0.0 3.0 0.00 0.15 0.11 42 1005.3
20260508234825 69 161 1.0 3.0 0.00 0.15 0.11 41 1005.2
20260508234332 69 104 1.0 5.0 0.00 0.15 0.11 40 1005.3
20260508233836 69 265 1.0 5.0 0.00 0.15 0.11 41 1005.4
20260508233321 69 169 1.0 3.0 0.00 0.15 0.11 41 1005.4
20260508232843 69 61 0.0 4.0 0.00 0.15 0.11 42 1005.4
20260508232327 69 273 1.0 4.0 0.00 0.15 0.11 40 1005.6
20260508231853 69 200 0.0 3.0 0.00 0.15 0.11 43 1005.5
20260508231356 69 36 0.0 3.0 0.00 0.15 0.11 42 1005.5
20260508230819 70 82 1.0 3.0 0.00 0.15 0.11 42 1005.4
20260508230344 70 277 1.0 3.0 0.00 0.15 0.11 40 1005.6
20260508225828 70 215 0.0 4.0 0.00 0.15 0.11 41 1005.5
20260508225331 70 196 0.0 4.0 0.00 0.15 0.11 42 1005.5
20260508224853 70 178 0.0 6.0 0.00 0.15 0.11 39 1005.5
20260508224329 70 238 1.0 6.0 0.00 0.15 0.11 42 1005.5
20260508223852 71 128 1.0 3.0 0.00 0.15 0.11 42 1005.6
20260508223334 70 331 1.0 4.0 0.00 0.15 0.11 41 1005.6
20260508222836 70 35 0.0 4.0 0.00 0.15 0.11 43 1005.6
20260508222319 71 105 1.0 3.0 0.00 0.15 0.11 41 1005.6
20260508221826 71 253 0.0 3.0 0.00 0.15 0.11 40 1005.6
20260508221333 71 255 0.0 2.0 0.00 0.15 0.11 41 1005.6
20260508220818 71 276 1.0 3.0 0.00 0.15 0.11 41 1005.6
20260508220325 71 294 1.0 4.0 0.00 0.15 0.11 40 1005.6
20260508215832 71 251 1.0 4.0 0.00 0.15 0.11 38 1005.6
20260508215317 71 57 0.0 4.0 0.00 0.15 0.11 40 1005.6
20260508214823 70 42 1.0 4.0 0.00 0.15 0.11 42 1005.6
20260508214331 70 224 1.0 4.0 0.00 0.15 0.11 37 1005.7
20260508213835 70 185 1.0 5.0 0.00 0.15 0.11 39 1005.7
20260508213341 70 265 1.0 2.0 0.00 0.15 0.11 38 1005.8
20260508212823 71 49 1.0 2.0 0.00 0.15 0.11 40 1005.9
20260508212351 70 265 0.0 3.0 0.00 0.15 0.11 42 1005.9
20260508211853 70 72 0.0 3.0 0.00 0.15 0.11 42 1006.0
20260508211317 70 304 1.0 5.0 0.00 0.15 0.11 40 1006.0
20260508210820 70 176 2.0 5.0 0.00 0.15 0.11 42 1006.0
20260508210347 70 55 0.0 3.0 0.00 0.15 0.11 44 1006.0
20260508205832 70 290 1.0 3.0 0.00 0.15 0.11 42 1006.1
20260508205335 70 317 1.0 4.0 0.00 0.15 0.11 40 1006.2
20260508204818 70 342 0.0 4.0 0.00 0.15 0.11 48 1006.2
20260508204320 69 244 0.0 4.0 0.00 0.15 0.11 43 1006.3
20260508203823 69 5 0.0 3.0 0.00 0.15 0.11 48 1006.3
20260508203325 69 257 1.0 4.0 0.00 0.15 0.11 42 1006.3
20260508202827 70 340 1.0 4.0 0.00 0.15 0.11 43 1006.4
20260508202351 70 198 0.0 2.0 0.00 0.15 0.11 46 1006.4
20260508201830 70 76 0.0 3.0 0.00 0.15 0.11 45 1006.5
20260508201336 70 144 1.0 3.0 0.00 0.15 0.11 46 1006.5
20260508200818 70 194 0.0 3.0 0.00 0.15 0.11 46 1006.8
20260508200324 70 93 1.0 3.0 0.00 0.15 0.11 44 1006.8
20260508195829 70 123 1.0 3.0 0.00 0.15 0.11 45 1007.0
20260508195336 70 217 1.0 3.0 0.00 0.15 0.11 43 1006.8
20260508194821 71 78 1.0 3.0 0.00 0.15 0.11 43 1007.0
20260508194326 71 113 1.0 4.0 0.00 0.15 0.11 48 1007.0
20260508193830 70 57 1.0 4.0 0.00 0.15 0.11 45 1007.1
20260508193337 71 294 1.0 3.0 0.00 0.15 0.11 47 1007.1
20260508192824 71 176 1.0 3.0 0.00 0.15 0.11 45 1007.3
20260508192330 70 267 0.0 4.0 0.00 0.15 0.11 50 1007.2
20260508191831 70 273 1.0 4.0 0.00 0.15 0.11 50 1007.3
20260508191333 70 98 0.0 3.0 0.00 0.15 0.11 51 1007.2
20260508190857 70 290 0.0 4.0 0.00 0.15 0.11 53 1007.4
20260508190319 70 213 1.0 4.0 0.00 0.15 0.11 52 1007.4
20260508185822 70 206 1.0 3.0 0.00 0.15 0.11 50 1007.5
20260508185344 70 355 1.0 3.0 0.00 0.15 0.11 50 1007.5
20260508184828 70 228 1.0 3.0 0.00 0.15 0.11 51 1007.6
20260508184329 69 355 0.0 3.0 0.00 0.15 0.11 50 1007.6
20260508183832 70 130 1.0 5.0 0.00 0.15 0.11 52 1007.8
20260508183335 70 142 1.0 5.0 0.00 0.15 0.11 53 1007.8
20260508182817 70 121 1.0 5.0 0.00 0.15 0.11 53 1007.9
20260508182321 70 242 1.0 5.0 0.00 0.15 0.11 53 1008.0
20260508181822 70 219 0.0 3.0 0.00 0.15 0.11 54 1007.9
20260508181325 70 254 0.0 3.0 0.00 0.15 0.11 46 1008.0
20260508180852 70 227 0.0 4.0 0.00 0.15 0.11 53 1008.1
20260508180337 69 268 1.0 4.0 0.00 0.15 0.11 47 1008.2
20260508175819 69 312 1.0 2.0 0.00 0.15 0.11 52 1008.2
20260508175346 69 234 0.0 2.0 0.00 0.15 0.11 50 1008.2
20260508174829 68 15 0.0 2.0 0.00 0.15 0.11 49 1008.2
20260508174332 68 360 1.0 2.0 0.00 0.15 0.11 54 1008.3
20260508173832 67 360 0.0 1.0 0.00 0.15 0.11 55 1008.2
20260508173318 67 360 0.0 2.0 0.00 0.15 0.11 48 1008.3
20260508172825 67 360 0.0 2.0 0.00 0.15 0.11 53 1008.3
20260508172331 67 360 0.0 3.0 0.00 0.17 0.11 57 1008.4
20260508171835 67 119 1.0 3.0 0.00 0.17 0.11 60 1008.5
20260508171316 66 205 0.0 2.0 0.00 0.17 0.11 60 1008.6
20260508170837 66 150 0.0 2.0 0.00 0.17 0.11 61 1008.8
20260508170318 66 75 0.0 2.0 0.00 0.17 0.11 60 1009.0
20260508165821 66 360 0.0 3.0 0.00 0.17 0.11 61 1009.1
20260508165323 66 360 0.0 2.0 0.00 0.17 0.11 61 1009.1
20260508164826 65 360 0.0 2.0 0.00 0.17 0.11 57 1009.1
20260508164328 66 360 0.0 2.0 0.00 0.17 0.11 61 1009.2
20260508163829 66 360 0.0 3.0 0.00 0.17 0.11 65 1009.4
20260508163332 65 17 0.0 3.0 0.00 0.17 0.11 62 1009.4
20260508162832 65 92 1.0 2.0 0.00 0.17 0.11 64 1009.3
20260508162336 64 167 0.0 1.0 0.00 0.19 0.11 74 1009.3
20260508161819 64 167 0.0 1.0 0.00 0.19 0.11 67 1009.3
20260508161347 64 167 0.0 0.0 0.00 0.19 0.11 69 1009.4
20260508160833 64 167 0.0 0.0 0.00 0.19 0.11 73 1009.3
20260508160317 63 167 0.0 0.0 0.00 0.19 0.11 68 1009.1
20260508155819 63 167 0.0 1.0 0.00 0.19 0.11 73 1009.2
20260508155347 63 167 0.0 1.0 0.00 0.19 0.11 73 1009.2
20260508154833 62 200 0.0 1.0 0.00 0.19 0.11 72 1009.4
20260508154319 62 200 0.0 2.0 0.00 0.19 0.11 71 1009.5
20260508153826 62 119 0.0 2.0 0.00 0.19 0.11 74 1009.5
20260508153332 61 119 0.0 2.0 0.00 0.19 0.11 73 1009.5
20260508152818 61 215 0.0 2.0 0.00 0.19 0.11 74 1009.5
20260508152321 60 142 0.0 2.0 0.00 0.26 0.11 78 1009.4
20260508151824 60 360 0.0 2.0 0.00 0.26 0.11 80 1009.4
20260508151329 59 162 0.0 2.0 0.01 0.26 0.11 81 1009.4
20260508150831 59 107 0.0 0.0 0.01 0.26 0.11 78 1009.5
20260508150333 59 107 0.0 1.0 0.01 0.26 0.11 81 1009.5
20260508145836 58 107 0.0 1.0 0.01 0.26 0.11 81 1009.5
20260508145356 58 107 0.0 0.0 0.01 0.26 0.11 84 1009.6
20260508144836 58 107 0.0 0.0 0.01 0.26 0.11 84 1009.5
20260508144338 58 107 0.0 1.0 0.01 0.26 0.11 84 1009.5
20260508143822 58 107 0.0 1.0 0.01 0.26 0.11 85 1009.5
20260508143324 57 107 0.0 0.0 0.01 0.26 0.11 83 1009.6
20260508142827 57 107 0.0 0.0 0.01 0.26 0.11 84 1009.7
20260508142330 57 107 0.0 1.0 0.01 0.26 0.11 83 1009.9
20260508141855 56 107 0.0 1.0 0.01 0.26 0.11 86 1009.9
20260508141318 56 107 0.0 1.0 0.00 0.25 0.10 88 1009.9
20260508140827 56 107 0.0 1.0 0.00 0.25 0.10 89 1009.9
20260508140334 55 107 0.0 1.0 0.00 0.25 0.10 89 1010.0
20260508135839 55 107 0.0 1.0 0.00 0.25 0.10 89 1010.1
20260508135319 55 107 0.0 0.0 0.00 0.25 0.10 89 1010.0
20260508134827 54 107 0.0 1.0 0.00 0.25 0.10 89 1009.9
20260508134354 54 107 0.0 1.0 0.00 0.25 0.10 89 1009.9
20260508133820 54 107 0.0 1.0 0.00 0.25 0.10 90 1009.9
20260508133326 54 107 0.0 1.0 0.00 0.25 0.10 90 1009.8
20260508132832 54 360 0.0 2.0 0.00 0.25 0.10 91 1009.8
20260508132319 53 360 0.0 2.0 0.00 0.25 0.10 92 1009.9
20260508131822 53 360 0.0 0.0 0.00 0.25 0.10 92 1009.9
20260508131326 52 360 0.0 1.0 0.00 0.25 0.10 92 1009.9
20260508130829 52 360 0.0 0.0 0.00 0.25 0.10 92 1010.0
20260508130331 52 360 0.0 1.0 0.00 0.25 0.10 92 1010.0
20260508125834 52 360 0.0 1.0 0.00 0.25 0.10 92 1009.9
20260508125337 51 360 0.0 1.0 0.00 0.25 0.10 92 1009.9
20260508124821 51 360 0.0 1.0 0.00 0.25 0.10 92 1009.9
20260508124323 50 360 0.0 2.0 0.00 0.25 0.10 92 1009.8
20260508123842 50 360 1.0 2.0 0.00 0.25 0.10 92 1009.8
20260508123342 49 360 0.0 0.0 0.00 0.25 0.10 92 1009.9
20260508122824 48 360 0.0 1.0 0.00 0.25 0.10 92 1009.9
20260508122326 48 360 0.0 1.0 0.00 0.25 0.10 92 1009.7
20260508121831 47 360 0.0 1.0 0.00 0.25 0.10 91 1009.8
20260508121336 47 360 0.0 0.0 0.00 0.25 0.10 91 1009.7
20260508120821 46 360 0.0 0.0 0.00 0.25 0.10 91 1009.8
20260508120329 46 360 0.0 0.0 0.00 0.25 0.10 91 1009.9
20260508115834 46 360 0.0 0.0 0.00 0.25 0.10 90 1009.8
20260508115336 46 360 0.0 0.0 0.00 0.25 0.10 90 1009.7
20260508114821 46 360 0.0 0.0 0.00 0.25 0.10 90 1009.6
20260508114330 46 360 0.0 0.0 0.00 0.25 0.10 90 1009.7
20260508113817 46 360 0.0 0.0 0.00 0.25 0.10 90 1009.7
20260508113324 46 360 0.0 0.0 0.00 0.25 0.10 90 1009.7
20260508112825 46 360 0.0 0.0 0.00 0.25 0.10 90 1009.8
20260508112353 46 360 0.0 0.0 0.00 0.25 0.10 90 1009.8
20260508111857 46 360 0.0 0.0 0.00 0.25 0.10 90 1009.8
20260508111319 46 360 0.0 0.0 0.00 0.25 0.10 90 1009.7
20260508110822 47 360 0.0 0.0 0.00 0.25 0.10 90 1009.9
20260508110345 47 360 0.0 0.0 0.00 0.25 0.10 90 1009.8
20260508105826 47 360 0.0 0.0 0.00 0.25 0.10 90 1009.6
20260508105350 47 360 0.0 0.0 0.00 0.25 0.10 90 1009.6
20260508104831 47 360 0.0 0.0 0.00 0.25 0.10 90 1009.7
20260508104332 47 360 0.0 0.0 0.00 0.25 0.10 90 1009.6
20260508103852 47 360 0.0 0.0 0.00 0.25 0.10 90 1009.6
20260508103355 47 360 0.0 0.0 0.00 0.25 0.10 89 1009.4
20260508102816 48 360 0.0 0.0 0.00 0.25 0.10 89 1009.3
20260508102319 48 360 0.0 0.0 0.00 0.25 0.10 90 1009.3
20260508101825 48 360 0.0 0.0 0.00 0.25 0.10 89 1009.4
20260508101331 48 360 0.0 0.0 0.00 0.25 0.10 90 1009.3
20260508100818 48 360 0.0 0.0 0.00 0.25 0.10 90 1009.4
20260508100324 48 360 0.0 1.0 0.00 0.25 0.10 90 1009.3
20260508095830 49 360 0.0 0.0 0.00 0.25 0.10 90 1009.3
20260508095337 49 360 0.0 1.0 0.00 0.25 0.10 90 1009.3
20260508094821 49 360 0.0 1.0 0.00 0.25 0.10 90 1009.3
20260508094328 49 360 0.0 0.0 0.00 0.25 0.10 90 1009.4
20260508093855 49 360 0.0 0.0 0.00 0.25 0.10 90 1009.4
20260508093317 49 360 0.0 0.0 0.00 0.25 0.10 90 1009.4
20260508092819 49 360 0.0 1.0 0.00 0.25 0.10 90 1009.5
20260508092326 49 360 0.0 1.0 0.00 0.25 0.10 90 1009.5
20260508091827 49 360 0.0 0.0 0.00 0.25 0.10 90 1009.5
20260508091330 49 360 0.0 0.0 0.00 0.25 0.10 89 1009.5
20260508090834 49 360 0.0 0.0 0.00 0.25 0.10 89 1009.5
20260508090334 49 360 0.0 1.0 0.00 0.25 0.10 89 1009.6
20260508085836 50 360 0.0 1.0 0.00 0.25 0.10 89 1009.7
20260508085319 50 360 0.0 0.0 0.00 0.25 0.10 89 1009.7
20260508084824 50 360 0.0 0.0 0.00 0.25 0.10 90 1009.7
20260508084348 50 360 0.0 0.0 0.00 0.25 0.10 90 1009.7
20260508083831 50 360 0.0 0.0 0.00 0.25 0.10 90 1009.7
20260508083332 50 360 0.0 0.0 0.00 0.25 0.10 90 1009.7
20260508082833 51 360 0.0 1.0 0.00 0.25 0.10 89 1009.8
20260508082355 51 360 0.0 1.0 0.00 0.25 0.10 90 1009.8
20260508081819 51 360 0.0 0.0 0.00 0.25 0.10 90 1009.8
20260508081326 51 360 0.0 0.0 0.03 0.25 0.10 90 1009.9
20260508080856 51 360 0.0 0.0 0.04 0.25 0.10 90 1009.8
20260508080341 51 360 0.0 0.0 0.04 0.25 0.10 90 1009.9
20260508075826 51 360 0.0 0.0 0.05 0.25 0.10 90 1010.0
20260508075332 51 360 0.0 0.0 0.05 0.25 0.10 90 1010.2
20260508074818 51 360 0.0 0.0 0.05 0.25 0.10 90 1010.2
20260508074326 51 360 0.0 1.0 0.05 0.25 0.10 89 1010.3
20260508073833 51 360 0.0 2.0 0.05 0.25 0.10 90 1010.2
20260508073319 51 360 0.0 0.0 0.05 0.25 0.10 89 1010.3
20260508072846 51 360 0.0 0.0 0.05 0.25 0.10 89 1010.4
20260508072325 51 360 0.0 0.0 0.05 0.25 0.10 89 1010.5
20260508071828 51 360 0.0 0.0 0.06 0.25 0.10 89 1010.6
20260508071330 51 360 0.0 0.0 0.04 0.22 0.07 89 1010.9
20260508070834 51 360 0.0 1.0 0.03 0.21 0.06 89 1010.9
20260508070317 51 360 0.0 2.0 0.03 0.21 0.06 89 1010.7
20260508065843 51 360 0.0 2.0 0.02 0.20 0.05 89 1010.7
20260508065346 51 360 0.0 1.0 0.02 0.20 0.05 89 1010.5
20260508064850 51 360 0.0 1.0 0.02 0.20 0.05 89 1010.6
20260508064332 51 360 0.0 1.0 0.03 0.20 0.05 89 1010.6
20260508063837 51 360 0.0 0.0 0.03 0.20 0.05 89 1010.8
20260508063321 51 360 0.0 0.0 0.05 0.20 0.05 89 1010.9
20260508062824 51 360 0.0 0.0 0.05 0.20 0.05 89 1011.1
20260508062323 51 360 0.0 1.0 0.05 0.20 0.05 89 1011.1
20260508061826 51 360 0.0 2.0 0.04 0.19 0.04 89 1011.2
20260508061330 51 360 1.0 2.0 0.03 0.18 0.03 89 1011.4
20260508060817 51 360 0.0 1.0 0.03 0.18 0.03 89 1011.4
20260508060320 51 360 0.0 1.0 0.03 0.18 0.03 89 1011.3
20260508055828 51 360 0.0 0.0 0.03 0.18 0.03 89 1011.1
20260508055336 51 360 0.0 0.0 0.03 0.18 0.03 89 1011.0
20260508054822 51 360 0.0 0.0 0.03 0.18 0.03 89 1011.0
20260508054327 51 360 0.0 0.0 0.02 0.17 0.02 89 1011.2
20260508053833 51 360 0.0 0.0 0.02 0.17 0.02 88 1011.4
20260508053318 51 360 0.0 0.0 0.01 0.15 0.00 88 1011.3
20260508052824 50 360 0.0 0.0 0.01 0.15 0.00 88 1011.0
20260508052326 51 360 0.0 0.0 0.01 0.15 0.15 88 1010.8
20260508051829 50 360 0.0 0.0 0.01 0.15 0.15 88 1011.0
20260508051334 50 360 0.0 0.0 0.01 0.15 0.15 88 1011.0
20260508050817 50 360 0.0 1.0 0.01 0.15 0.15 88 1010.9
20260508050322 50 360 0.0 1.0 0.01 0.15 0.15 88 1010.9
20260508045835 51 360 0.0 0.0 0.01 0.15 0.15 88 1011.2
20260508045318 51 360 0.0 0.0 0.02 0.15 0.15 87 1011.1
20260508044822 51 360 0.0 0.0 0.02 0.15 0.15 87 1010.9
20260508044327 51 360 0.0 1.0 0.02 0.15 0.15 87 1011.0
20260508043850 51 360 0.0 1.0 0.02 0.15 0.15 87 1011.1
20260508043333 51 360 0.0 1.0 0.01 0.14 0.14 86 1011.2
20260508042837 51 360 0.0 1.0 0.01 0.14 0.14 86 1010.8
20260508042336 51 360 0.0 0.0 0.01 0.14 0.14 86 1011.1